Orbital Elements at Epoch 2459200.5 (2020-Dec-17.0) TDB
Reference: JPL 22 (heliocentric ecliptic J2000)
Element | Value | Uncertainty (1-sigma) | Units |
e | .2263627132323725 | 4.3834e-08 | |
a | 2.408083067376279 | 1.5011e-08 | au |
q | 1.86298285055605 | 1.0202e-07 | au |
i | 2.83008290775158 | 4.5737e-06 | deg |
node | 172.0274446007173 | 9.6187e-05 | deg |
peri | 169.9076315207163 | 9.7017e-05 | deg |
M | 281.7431133610752 | 1.8646e-05 | deg |
tp | 2459497.205562260958 (2021-Oct-09.70556226) | 7.2872e-05 | TDB |
period | 1364.915050949851 3.74 | 1.2763e-05 3.494e-08 | d yr |
n | .2637526780508972 | 2.4662e-09 | deg/d |
Q | 2.953183284196507 | 1.8409e-08 | au |
|
| | Orbit Determination Parameters
Additional Information
|